When you browse on this site, cookies collect data to enhance your experience and personalize the content and advertising you see.
Visit our Privacy Policy to learn more. By continuing to use the site, you agree to this use of cookies and data.
  • In Schweiz
  • Länderverzeichnis
  • Für 7 Tage
  • Wassertemperatur
  • Wetterkarte
  • Widgets
  • user-avatar
    Anmelden

    Stündliche Wetter Mingachevir

    Heute, 23 Februar, Sonntag

    Zeit Temperatur Niederschläge Wind Luftdruck Luftfeuchtigkeit
    00:00 +7°C° 0 mm 0 m/S 756 mmHg 91%
    01:00 +7°C° 0 mm 0 m/S 756 mmHg 90%
    02:00 +8°C° 0 mm 1 m/S 756 mmHg 89%
    03:00 +8°C° 0 mm 1 m/S 755 mmHg 89%
    04:00 +8°C° 0 mm 1 m/S 755 mmHg 88%
    05:00 +8°C° 0 mm 1 m/S 755 mmHg 88%
    06:00 +8°C° 0 mm 1 m/S 755 mmHg 87%
    07:00 +9°C° 0 mm 1 m/S 755 mmHg 81%
    08:00 +10°C° 0 mm 1 m/S 756 mmHg 75%
    09:00 +11°C° 0 mm 1 m/S 756 mmHg 68%
    10:00 +13°C° 0 mm 2 m/S 755 mmHg 61%
    11:00 +14°C° 0 mm 2 m/S 755 mmHg 54%
    12:00 +16°C° 0 mm 3 m/S 755 mmHg 48%
    13:00 +16°C° 0 mm 3 m/S 754 mmHg 44%
    14:00 +17°C° 0 mm 4 m/S 754 mmHg 41%
    15:00 +18°C° 0 mm 4 m/S 753 mmHg 38%
    16:00 +17°C° 0 mm 3 m/S 754 mmHg 41%
    17:00 +16°C° 0 mm 3 m/S 754 mmHg 44%
    18:00 +14°C° 0 mm 3 m/S 754 mmHg 46%
    19:00 +14°C° 0 mm 2 m/S 755 mmHg 49%
    20:00 +14°C° 0 mm 2 m/S 755 mmHg 51%
    21:00 +13°C° 0 mm 2 m/S 755 mmHg 53%
    22:00 +13°C° 0 mm 2 m/S 755 mmHg 54%
    23:00 +11°C° 0 mm 3 m/S 755 mmHg 55%

    Morgen, 24 Februar, Montag

    Zeit Temperatur Niederschläge Wind Luftdruck Luftfeuchtigkeit
    00:00 +11°C° 0 mm 3 m/S 755 mmHg 56%
    01:00 +10°C° 0 mm 3 m/S 755 mmHg 59%
    02:00 +9°C° 0 mm 2 m/S 755 mmHg 62%
    03:00 +9°C° 0 mm 2 m/S 754 mmHg 65%
    04:00 +8°C° 0 mm 2 m/S 754 mmHg 67%
    05:00 +8°C° 0 mm 2 m/S 754 mmHg 69%
    06:00 +8°C° 0 mm 1 m/S 754 mmHg 71%
    07:00 +9°C° 0 mm 1 m/S 754 mmHg 68%
    08:00 +10°C° 0 mm 1 m/S 754 mmHg 66%
    09:00 +11°C° 0 mm 1 m/S 754 mmHg 64%
    10:00 +12°C° 0 mm 1 m/S 753 mmHg 58%
    11:00 +13°C° 0 mm 1 m/S 752 mmHg 52%
    12:00 +15°C° 0 mm 1 m/S 751 mmHg 46%
    13:00 +15°C° 0 mm 1 m/S 750 mmHg 43%
    14:00 +16°C° 0 mm 1 m/S 750 mmHg 40%
    15:00 +18°C° 0 mm 1 m/S 749 mmHg 38%
    16:00 +16°C° 0 mm 1 m/S 748 mmHg 40%
    17:00 +15°C° 0 mm 1 m/S 748 mmHg 43%
    18:00 +14°C° 0 mm 1 m/S 748 mmHg 45%
    19:00 +14°C° 0 mm 1 m/S 748 mmHg 46%
    20:00 +13°C° 0 mm 1 m/S 748 mmHg 47%
    21:00 +13°C° 0 mm 2 m/S 747 mmHg 48%
    22:00 +13°C° 0 mm 2 m/S 747 mmHg 48%
    23:00 +12°C° 0 mm 2 m/S 747 mmHg 48%

    übermorgen, 25 Februar, Dienstag

    Zeit Temperatur Niederschläge Wind Luftdruck Luftfeuchtigkeit
    00:00 +12°C° 0 mm 2 m/S 746 mmHg 48%
    01:00 +12°C° 0 mm 2 m/S 746 mmHg 47%
    02:00 +11°C° 0 mm 3 m/S 745 mmHg 46%
    03:00 +10°C° 0 mm 3 m/S 745 mmHg 46%
    04:00 +10°C° 0 mm 3 m/S 745 mmHg 45%
    05:00 +10°C° 0 mm 4 m/S 745 mmHg 44%
    06:00 +10°C° 0 mm 4 m/S 745 mmHg 44%
    07:00 +10°C° 0 mm 7 m/S 745 mmHg 43%
    08:00 +9°C° 0 mm 11 m/S 746 mmHg 42%
    09:00 +10°C° 0 mm 15 m/S 746 mmHg 42%
    10:00 +10°C° 0 mm 15 m/S 746 mmHg 38%
    11:00 +11°C° 0 mm 16 m/S 747 mmHg 35%
    12:00 +13°C° 0 mm 16 m/S 747 mmHg 31%
    13:00 +11°C° 0.1 mm 15 m/S 747 mmHg 30%
    14:00 +11°C° 0.1 mm 15 m/S 748 mmHg 28%
    15:00 +12°C° 0.1 mm 14 m/S 749 mmHg 27%
    16:00 +10°C° 0 mm 13 m/S 750 mmHg 29%
    17:00 +9°C° 0 mm 12 m/S 751 mmHg 30%
    18:00 +9°C° 0 mm 10 m/S 752 mmHg 31%
    19:00 +8°C° 0 mm 9 m/S 753 mmHg 33%
    20:00 +8°C° 0 mm 7 m/S 754 mmHg 36%
    21:00 +7°C° 0 mm 5 m/S 755 mmHg 38%
    22:00 +6°C° 0 mm 5 m/S 756 mmHg 46%
    23:00 +6°C° 0 mm 4 m/S 756 mmHg 54%

    26 Februar, Mittwoch

    Zeit Temperatur Niederschläge Wind Luftdruck Luftfeuchtigkeit
    00:00 +5°C° 0 mm 3 m/S 756 mmHg 62%
    01:00 +5°C° 0 mm 3 m/S 757 mmHg 62%
    02:00 +5°C° 0 mm 2 m/S 757 mmHg 62%
    03:00 +5°C° 0 mm 2 m/S 757 mmHg 63%
    04:00 +5°C° 0 mm 2 m/S 757 mmHg 65%
    05:00 +5°C° 0 mm 1 m/S 757 mmHg 68%
    06:00 +5°C° 0 mm 1 m/S 758 mmHg 70%
    07:00 +5°C° 0 mm 2 m/S 758 mmHg 66%
    08:00 +5°C° 0 mm 3 m/S 758 mmHg 62%
    09:00 +6°C° 0 mm 4 m/S 759 mmHg 57%
    10:00 +8°C° 0 mm 3 m/S 758 mmHg 53%
    11:00 +9°C° 0 mm 3 m/S 758 mmHg 48%
    12:00 +10°C° 0 mm 3 m/S 758 mmHg 44%
    13:00 +10°C° 0 mm 3 m/S 757 mmHg 44%
    14:00 +10°C° 0 mm 2 m/S 757 mmHg 44%
    15:00 +12°C° 0 mm 2 m/S 756 mmHg 43%
    16:00 +10°C° 0 mm 2 m/S 757 mmHg 46%
    17:00 +10°C° 0 mm 1 m/S 757 mmHg 49%
    18:00 +10°C° 0 mm 1 m/S 757 mmHg 51%
    19:00 +9°C° 0 mm 1 m/S 757 mmHg 54%
    20:00 +8°C° 0 mm 0 m/S 757 mmHg 57%
    21:00 +7°C° 0 mm 0 m/S 757 mmHg 60%
    22:00 +7°C° 0 mm 0 m/S 757 mmHg 62%
    23:00 +6°C° 0 mm 0 m/S 757 mmHg 64%

    27 Februar, Donnerstag

    Zeit Temperatur Niederschläge Wind Luftdruck Luftfeuchtigkeit
    00:00 +6°C° 0 mm 0 m/S 756 mmHg 65%
    01:00 +5°C° 0 mm 0 m/S 756 mmHg 66%
    02:00 +6°C° 0 mm 1 m/S 756 mmHg 66%
    03:00 +6°C° 0 mm 1 m/S 755 mmHg 66%
    04:00 +6°C° 0 mm 1 m/S 755 mmHg 66%
    05:00 +5°C° 0 mm 1 m/S 755 mmHg 67%
    06:00 +4°C° 0 mm 0 m/S 755 mmHg 67%
    07:00 +6°C° 0 mm 1 m/S 755 mmHg 62%
    08:00 +8°C° 0 mm 1 m/S 755 mmHg 57%
    09:00 +9°C° 0 mm 1 m/S 755 mmHg 51%
    10:00 +10°C° 0 mm 1 m/S 755 mmHg 48%
    11:00 +11°C° 0 mm 1 m/S 754 mmHg 45%
    12:00 +12°C° 0 mm 1 m/S 754 mmHg 42%
    13:00 +13°C° 0 mm 1 m/S 753 mmHg 41%
    14:00 +13°C° 0 mm 1 m/S 753 mmHg 39%
    15:00 +14°C° 0 mm 1 m/S 753 mmHg 38%
    16:00 +13°C° 0 mm 1 m/S 753 mmHg 40%
    17:00 +13°C° 0 mm 1 m/S 753 mmHg 43%
    18:00 +12°C° 0 mm 1 m/S 753 mmHg 46%
    19:00 +11°C° 0 mm 1 m/S 753 mmHg 49%
    20:00 +11°C° 0 mm 1 m/S 753 mmHg 52%
    21:00 +10°C° 0 mm 1 m/S 753 mmHg 55%
    22:00 +9°C° 0 mm 1 m/S 752 mmHg 59%
    23:00 +9°C° 0 mm 1 m/S 752 mmHg 64%

    28 Februar, Freitag

    Zeit Temperatur Niederschläge Wind Luftdruck Luftfeuchtigkeit
    00:00 +8°C° 0 mm 1 m/S 752 mmHg 68%
    01:00 +8°C° 0 mm 1 m/S 751 mmHg 73%
    02:00 +7°C° 0 mm 1 m/S 751 mmHg 78%
    03:00 +6°C° 0 mm 1 m/S 751 mmHg 83%
    04:00 +6°C° 0 mm 1 m/S 750 mmHg 84%
    05:00 +5°C° 0 mm 0 m/S 750 mmHg 85%
    06:00 +4°C° 0 mm 0 m/S 750 mmHg 86%
    07:00 +6°C° 0 mm 0 m/S 750 mmHg 80%
    08:00 +8°C° 0 mm 1 m/S 750 mmHg 74%
    09:00 +9°C° 0 mm 1 m/S 749 mmHg 67%
    10:00 +11°C° 0 mm 1 m/S 749 mmHg 60%
    11:00 +12°C° 0 mm 1 m/S 748 mmHg 53%
    12:00 +14°C° 0 mm 1 m/S 748 mmHg 46%
    13:00 +14°C° 0 mm 1 m/S 748 mmHg 43%
    14:00 +15°C° 0 mm 1 m/S 747 mmHg 40%
    15:00 +15°C° 0 mm 1 m/S 747 mmHg 38%
    16:00 +15°C° 0 mm 1 m/S 747 mmHg 41%
    17:00 +14°C° 0 mm 1 m/S 747 mmHg 44%
    18:00 +13°C° 0 mm 1 m/S 747 mmHg 48%
    19:00 +12°C° 0 mm 1 m/S 747 mmHg 51%
    20:00 +12°C° 0 mm 1 m/S 747 mmHg 54%
    21:00 +11°C° 0 mm 1 m/S 747 mmHg 57%
    22:00 +10°C° 0 mm 0 m/S 747 mmHg 58%
    23:00 +9°C° 0 mm 0 m/S 746 mmHg 59%
    Mehr zeigen